Weather History for Ft Pierce, FL

Change the Weather History Date:

Wednesday, February 20, 2013

  Actual Average Record
Temperature  
Mean Temperature 62 °F -  
Max Temperature 73 °F 75 °F 88 °F (1932)
Min Temperature 52 °F 56 °F 34 °F (1958)
Degree Days  
Heating Degree Days 2    
Growing Degree Days 12 (Base 50)    
Moisture  
Dew Point 58 °F    
Average Humidity 86    
Maximum Humidity 100    
Minimum Humidity 64    
Precipitation  
Precipitation 0.00 in - - ()
Sea Level Pressure  
Sea Level Pressure 30.09 in    
Wind  
Wind Speed 3 mph (North)    
Max Wind Speed 10 mph    
Max Gust Speed -    
Visibility 6 miles    
Events Fog    
Averages and records for this station are not official NWS values.
T = Trace of Precipitation, MM = Missing Value Source: NWS Daily Summary

Daily Weather History Graph

Daily Weather History Graph

Search for Another Location

Airport:

Trip Planner

Search our weather history database for the weather conditions in past years. The results will help you decide how hot, cold, wet, or windy it might be!

Date:

Astronomy

Feb. 20, 2013 Rise Set
Actual Time 6:54 AM EST 6:16 PM EST
Civil Twilight 6:30 AM EST 6:40 PM EST
Nautical Twilight 6:03 AM EST 7:07 PM EST
Astronomical Twilight 5:36 AM EST 7:34 PM EST
Moon 1:51 PM EST (2/20) 2:57 AM EST (2/20)
Length of Visible Light 12h 09m
Length of Day
11h 22m
Waxing Gibbous, 76% of the Moon is Illuminated
Feb 20
Waxing Gibbous
Feb 25
Full
Mar 4
Last Quarter
Mar 11
New
Mar 19
First Quarter

Hourly Weather History & Observations

Time (EST) Temp. Dew Point Humidity Pressure Visibility Wind Dir Wind Speed Gust Speed Precip Events Conditions
12:53 AM 57.9 °F 55.0 °F 90% 30.10 in 9.0 mi Calm Calm - N/A   Clear
1:53 AM 57.0 °F 54.0 °F 89% 30.09 in 10.0 mi Calm Calm - N/A   Clear
2:46 AM 55.4 °F 53.6 °F 94% 30.09 in 2.0 mi NW 4.6 mph - N/A   Clear
2:53 AM 55.9 °F 54.0 °F 93% 30.09 in 5.0 mi NW 5.8 mph - N/A   Clear
3:53 AM 55.9 °F 55.0 °F 97% 30.08 in 6.0 mi WSW 3.5 mph - N/A   Clear
4:53 AM 55.9 °F 55.0 °F 97% 30.09 in 6.0 mi Calm Calm - N/A   Clear
5:09 AM 55.4 °F 55.4 °F 100% 30.08 in 1.8 mi Calm Calm - N/A   Clear
5:21 AM 55.4 °F 55.4 °F 100% 30.08 in 0.8 mi Calm Calm - N/A   Mist
5:26 AM 55.4 °F 53.6 °F 94% 30.08 in 0.2 mi Calm Calm - N/A Fog Fog
5:53 AM 52.0 °F 50.0 °F 93% 30.09 in 0.2 mi WNW 4.6 mph - N/A Fog Fog
6:09 AM 53.6 °F 51.8 °F 94% 30.09 in 0.8 mi NW 4.6 mph - N/A   Mist
6:12 AM 53.6 °F 51.8 °F 94% 30.09 in 1.2 mi NW 4.6 mph - N/A   Scattered Clouds
6:16 AM 53.6 °F 51.8 °F 94% 30.09 in 3.0 mi NW 3.5 mph - N/A   Scattered Clouds
6:53 AM 55.9 °F 54.0 °F 93% 30.10 in 3.0 mi Calm Calm - N/A   Clear
7:53 AM 59.0 °F 57.9 °F 96% 30.12 in 8.0 mi West 3.5 mph - N/A   Clear
8:09 AM 60.8 °F 59.0 °F 94% 30.12 in 7.0 mi NW 3.5 mph - N/A   Mostly Cloudy
8:46 AM 64.4 °F 62.6 °F 94% 30.13 in 5.0 mi NW 5.8 mph - N/A   Mostly Cloudy
8:53 AM 64.0 °F 62.1 °F 93% 30.13 in 3.0 mi NNW 6.9 mph - N/A   Mostly Cloudy
9:03 AM 66.2 °F 62.6 °F 88% 30.13 in 6.0 mi NW 6.9 mph - N/A   Scattered Clouds
9:53 AM 72.0 °F 62.1 °F 71% 30.13 in 10.0 mi North 5.8 mph - N/A   Clear
10:53 AM 72.0 °F 62.1 °F 71% 30.12 in 10.0 mi NE 10.4 mph - N/A   Partly Cloudy
11:53 AM 73.9 °F 62.1 °F 66% 30.12 in 10.0 mi NE 6.9 mph - N/A   Scattered Clouds
12:53 PM 73.9 °F 62.1 °F 66% 30.10 in 10.0 mi ENE 8.1 mph - N/A   Clear
1:53 PM 73.9 °F 61.0 °F 64% 30.06 in 10.0 mi ENE 8.1 mph - N/A   Partly Cloudy
2:53 PM 73.9 °F 61.0 °F 64% 30.04 in 10.0 mi East 10.4 mph - N/A   Clear
3:53 PM 73.0 °F 62.1 °F 68% 30.04 in 10.0 mi East 8.1 mph - N/A   Clear
4:53 PM 73.0 °F 62.1 °F 68% 30.05 in 10.0 mi Variable 4.6 mph - N/A   Clear
5:53 PM 70.0 °F 62.1 °F 76% 30.06 in 10.0 mi NE 4.6 mph - N/A   Scattered Clouds
6:53 PM 66.9 °F 63.0 °F 87% 30.08 in 10.0 mi NNE 4.6 mph - N/A   Scattered Clouds
7:53 PM 66.0 °F 62.1 °F 87% 30.08 in 10.0 mi Calm Calm - N/A   Clear
8:53 PM 64.9 °F 63.0 °F 93% 30.09 in 10.0 mi NNE 3.5 mph - N/A   Clear
9:53 PM 66.0 °F 63.0 °F 90% 30.10 in 10.0 mi NNE 3.5 mph - N/A   Clear
10:53 PM 66.0 °F 63.0 °F 90% 30.10 in 9.0 mi Calm Calm - N/A   Clear
11:53 PM 64.0 °F 62.1 °F 93% 30.08 in 5.0 mi North 3.5 mph - N/A   Clear